Wind_Speed
67 65 66 64 63 62 61 61 61 59 56 57 58 57 53 51 50 49 47 45 44 41 39 39 37 36 34 33 32 30 30 29 29 28 27 27 26 26 25 24 24 24 24 24
68 68 63 61 62 62 62 62 62 61 59 59 60 60 57 55 53 52 50 48 47 45 43 42 40 39 38 36 35 34 33 32 32 31 31 30 29 28 27 26 26 27 27 27
70 67 63 63 63 63 64 63 61 60 59 61 62 63 60 56 55 54 53 51 50 48 46 45 44 43 41 40 38 37 37 36 35 35 34 33 32 31 30 29 30 30 30 29
69 67 66 66 65 64 64 62 62 62 62 62 63 67 63 59 57 56 55 53 52 50 49 48 47 46 45 43 42 41 41 40 39 38 37 36 35 34 33 34 34 33 33 33
68 67 67 68 65 63 63 61 61 61 62 64 64 68 68 62 60 57 55 54 53 51 51 50 49 49 48 47 46 45 44 43 42 42 41 40 39 38 37 37 37 36 36 36
65 63 64 65 63 62 60 60 61 61 62 67 66 68 71 65 61 58 56 55 54 53 52 51 51 52 51 51 50 49 48 47 46 45 44 43 42 42 41 41 40 40 40 40
64 63 63 62 63 63 61 60 62 63 64 68 64 67 72 65 60 58 57 56 56 55 54 53 54 54 54 54 53 53 52 51 50 49 48 47 46 46 45 45 45 45 44 44
62 63 63 62 61 60 61 61 63 64 64 65 63 67 68 64 61 59 58 57 57 56 57 56 55 56 56 56 56 56 56 55 54 53 52 51 50 50 50 49 49 49 49 48
61 61 60 60 58 58 57 59 59 60 61 61 63 65 66 64 62 59 58 57 57 57 57 57 57 58 58 59 59 59 59 58 58 57 57 56 55 54 54 53 53 53 53 52
59 61 60 59 59 60 58 57 57 59 59 60 62 62 62 61 59 57 56 55 55 55 55 56 57 58 59 60 60 60 61 61 61 60 60 60 59 58 57 57 57 57 56 56
56 58 60 59 61 59 58 59 59 60 60 60 61 60 57 56 54 54 55 55 54 52 52 54 55 57 59 59 60 61 61 62 62 62 62 62 61 61 61 60 60 60 59 59
52 55 58 59 59 59 59 60 60 62 62 61 61 60 55 54 54 53 53 54 53 52 52 53 54 56 58 59 60 61 61 61 62 62 63 63 63 63 63 62 62 62 61 61
50 54 56 57 59 60 61 60 60 60 61 60 60 58 53 54 53 53 53 53 53 53 52 52 53 54 56 57 59 60 61 61 62 62 63 64 64 64 64 64 64 64 63 63
50 54 55 57 57 57 58 58 59 60 62 61 59 57 55 53 53 52 52 52 53 54 53 53 53 53 54 55 57 58 60 61 62 62 63 63 64 64 64 65 65 65 65 65
52 54 54 53 54 54 56 57 58 59 61 62 59 57 55 54 55 54 53 53 54 55 54 54 54 54 55 55 56 57 58 60 60 61 62 62 64 64 65 65 65 65 65 65
53 54 54 54 54 55 57 56 56 57 56 57 57 57 55 55 56 57 57 56 57 57 56 55 56 56 57 57 57 58 59 59 60 61 61 62 64 65 65 65 65 65 65 66
53 53 53 54 53 55 58 56 56 56 56 56 57 56 54 55 56 57 57 58 58 58 58 57 57 58 58 58 58 59 60 61 61 62 62 63 64 64 64 65 65 65 65 66
50 51 52 53 54 58 56 53 54 55 56 56 55 55 56 57 57 58 58 58 58 58 59 59 59 59 59 59 60 60 61 62 62 63 63 64 65 65 65 65 65 65 65 66
47 48 50 52 54 56 55 54 53 54 54 54 55 54 55 56 58 60 60 61 60 59 59 59 60 60 60 60 60 60 61 62 63 64 64 64 65 65 65 65 66 66 67 66
45 47 49 51 53 55 52 50 51 53 55 52 53 54 55 56 59 59 59 61 61 61 62 61 61 62 61 61 62 63 63 63 62 63 64 66 66 67 67 67 67 68 68 68
46 48 49 50 52 53 50 50 51 55 53 50 50 51 53 56 57 58 59 61 62 62 63 62 62 62 62 62 63 63 64 64 64 64 65 66 67 68 68 69 69 69 69 69
46 47 49 50 51 50 47 49 50 50 50 50 50 51 52 54 55 56 57 58 59 59 60 60 61 61 61 61 62 63 64 64 64 65 65 66 66 67 67 68 69 70 70 70
45 45 46 47 47 45 45 46 47 49 50 51 51 51 52 53 54 54 55 56 57 57 57 58 60 60 60 61 62 63 64 65 65 65 66 66 67 67 67 68 69 70 71 70
42 44 45 45 44 44 45 46 47 47 49 49 50 51 53 53 54 55 55 56 56 57 57 58 59 60 60 61 61 62 63 64 65 66 66 67 68 68 68 69 70 70 71 71
42 43 45 46 46 47 47 47 48 49 49 50 51 51 51 52 53 54 54 55 56 57 58 58 58 59 60 60 60 61 62 63 64 65 65 66 67 67 68 69 70 70 70 70
44 44 46 47 46 47 48 48 49 49 49 49 50 51 52 52 52 53 54 55 56 57 58 59 58 58 58 59 59 59 60 60 61 62 63 64 64 65 66 67 68 69 69 69
Wind_Direction
235 236 238 240 242 244 246 246 247 246 247 248 248 247 246 246 247 247 248 248 249 249 250 250 252 253 254 255 255 255 256 257 257 257 257 257 258 259 261 263 266 267 268 268
235 237 238 239 240 241 243 245 247 248 248 249 249 248 247 246 247 248 248 249 249 249 250 251 252 252 253 254 254 254 255 256 257 257 257 257 258 259 261 263 265 266 266 267
238 238 238 238 240 241 243 245 248 249 249 250 251 250 248 247 247 248 248 249 249 249 250 250 251 252 252 253 254 254 254 254 256 257 257 258 259 259 261 262 262 263 265 267
237 236 237 238 240 241 243 245 248 249 250 251 252 253 248 248 247 247 249 249 250 250 250 251 251 252 252 253 253 253 253 254 254 256 257 258 259 259 259 260 262 263 265 266
237 237 238 239 241 243 245 245 247 249 250 251 251 254 251 248 248 248 250 251 250 251 251 251 251 252 252 252 252 253 254 254 255 256 257 258 258 259 259 261 262 263 264 266
237 237 238 240 241 242 243 244 246 247 249 250 250 253 253 250 251 251 252 252 252 252 252 251 251 251 251 252 252 253 254 255 255 256 257 258 258 259 260 261 262 262 264 265
234 235 236 237 238 239 240 241 243 245 246 250 252 253 254 253 253 254 254 253 253 252 252 252 252 253 252 252 253 253 254 255 256 257 257 258 258 259 260 260 261 262 263 265
234 234 235 237 238 241 242 242 243 245 248 252 253 254 254 255 255 255 255 255 255 255 254 254 254 255 254 253 253 254 254 254 256 257 258 258 258 259 259 260 261 262 263 264
234 236 236 237 238 238 240 241 243 246 249 251 252 255 256 256 257 257 256 256 256 256 256 256 255 255 255 254 254 254 254 255 255 256 257 258 258 259 260 260 261 262 263 263
236 238 237 237 237 236 237 239 239 242 246 249 252 253 256 257 258 258 258 256 256 255 256 256 256 255 256 256 255 254 254 255 255 256 256 257 257 258 259 260 261 262 262 263
236 237 237 236 235 236 237 236 238 241 244 247 251 253 254 256 257 257 256 257 256 254 255 255 255 254 254 254 255 255 255 255 255 255 255 256 257 258 259 260 261 261 262 263
232 234 236 237 238 239 239 239 240 242 244 247 250 252 253 254 256 256 257 257 255 254 253 253 253 253 253 253 253 254 254 254 255 255 255 256 257 257 258 259 260 261 262 263
229 232 235 236 237 237 239 239 240 242 245 246 248 250 250 252 253 254 256 256 255 254 253 253 252 252 252 252 252 253 253 254 254 255 255 256 257 257 258 259 259 260 261 262
230 233 235 238 240 240 240 240 241 242 244 246 248 250 249 250 250 252 254 254 254 254 254 254 252 252 252 252 252 253 253 254 254 255 256 257 257 258 258 259 260 260 260 261
230 232 234 236 238 240 241 241 242 243 246 249 250 249 248 249 251 252 253 254 254 254 254 254 254 253 253 252 253 254 254 254 255 256 257 258 259 259 259 259 260 260 261 261
229 232 234 235 236 238 239 239 240 241 244 247 249 248 247 250 253 254 254 255 255 255 255 255 255 255 255 255 255 254 254 254 255 257 258 259 259 260 260 261 261 261 261 262
231 233 235 236 237 239 240 240 243 244 245 247 249 249 248 250 251 253 254 254 255 256 256 256 256 256 257 257 257 256 255 255 256 257 258 258 259 259 260 260 261 261 262 263
232 234 236 239 240 242 242 241 244 247 248 249 251 251 249 250 252 253 254 256 256 257 258 259 259 259 259 259 259 258 257 257 257 258 258 258 259 259 260 260 261 262 262 262
234 235 238 241 243 245 245 243 245 249 251 251 253 253 252 252 254 255 256 258 258 259 260 260 261 261 261 260 259 259 259 259 259 259 259 259 259 260 260 261 261 262 262 262
235 237 239 242 245 247 246 246 248 250 252 252 254 254 254 254 256 256 257 259 261 262 262 262 262 261 261 261 261 261 260 260 260 261 261 260 261 261 261 262 262 262 263 263
237 239 241 244 248 249 249 249 250 252 254 254 255 255 255 256 257 258 258 259 261 263 263 263 263 263 263 263 263 263 262 262 262 262 263 263 263 263 263 262 262 262 263 263
241 243 244 247 249 252 253 253 253 256 256 255 256 257 257 257 257 258 259 260 262 263 264 264 264 264 264 264 264 264 264 264 264 264 264 264 264 265 265 264 263 263 263 263
243 244 247 249 253 254 254 254 255 256 257 258 258 258 258 258 258 259 259 260 262 263 263 264 265 265 265 265 265 265 265 265 265 265 265 264 264 264 264 264 264 264 264 263
247 246 248 250 252 254 255 255 256 257 257 258 259 260 260 261 261 261 262 262 262 263 264 265 266 266 266 267 267 267 266 266 266 266 266 265 265 264 264 264 264 265 265 264
249 250 251 253 255 255 255 256 257 258 259 260 260 260 260 261 262 262 262 262 262 263 265 266 267 266 267 268 268 269 269 268 268 268 268 267 266 265 264 264 265 265 265 266
252 253 253 255 256 256 256 256 257 258 258 259 260 261 261 261 262 263 263 264 264 265 266 267 269 269 269 269 269 270 270 269 269 269 269 268 267 267 266 266 266 265 265 265
Height
5703 5709 5717 5727 5734 5741 5745 5749 5754 5762 5766 5768 5772 5778 5786 5792 5796 5801 5805 5809 5813 5817 5820 5822 5824 5827 5829 5831 5833 5835 5836 5837 5838 5840 5841 5842 5842 5843 5844 5845 5846 5846 5846 5846
5690 5698 5712 5718 5722 5727 5732 5737 5744 5750 5755 5757 5760 5766 5774 5781 5786 5791 5796 5800 5804 5808 5811 5814 5817 5819 5822 5824 5826 5828 5829 5831 5832 5833 5834 5836 5837 5838 5839 5840 5840 5840 5840 5840
5679 5694 5702 5704 5709 5715 5721 5728 5735 5739 5743 5744 5748 5752 5762 5770 5775 5781 5786 5791 5795 5799 5802 5805 5808 5810 5813 5816 5818 5820 5822 5823 5824 5826 5827 5829 5830 5832 5833 5834 5834 5834 5834 5834
5667 5680 5685 5690 5697 5705 5710 5720 5724 5726 5729 5732 5736 5737 5751 5759 5764 5770 5776 5780 5785 5789 5792 5795 5798 5801 5804 5807 5809 5811 5813 5814 5816 5817 5819 5821 5823 5825 5826 5826 5826 5827 5827 5828
5655 5667 5673 5678 5690 5696 5703 5709 5712 5715 5716 5719 5723 5725 5735 5747 5753 5761 5766 5770 5774 5778 5781 5784 5787 5790 5793 5796 5799 5801 5803 5805 5807 5809 5811 5813 5815 5817 5817 5818 5819 5819 5819 5819
5646 5655 5661 5670 5680 5685 5691 5696 5699 5700 5702 5703 5713 5714 5718 5734 5744 5751 5756 5759 5762 5766 5769 5773 5776 5778 5781 5784 5787 5790 5793 5795 5797 5799 5801 5803 5806 5807 5808 5809 5810 5810 5811 5811
5632 5640 5648 5658 5665 5672 5677 5683 5685 5686 5686 5690 5703 5700 5709 5725 5733 5738 5742 5746 5749 5752 5756 5760 5763 5766 5769 5772 5775 5778 5781 5784 5786 5788 5790 5793 5795 5796 5798 5799 5800 5801 5801 5802
5621 5627 5638 5646 5654 5661 5667 5671 5674 5676 5678 5684 5688 5687 5702 5713 5719 5723 5728 5732 5735 5739 5742 5746 5749 5753 5756 5759 5762 5765 5768 5771 5774 5776 5778 5781 5783 5785 5786 5788 5789 5789 5790 5792
5611 5620 5630 5636 5645 5650 5654 5657 5665 5667 5668 5671 5673 5679 5690 5699 5705 5710 5715 5718 5722 5725 5728 5732 5735 5738 5742 5745 5748 5751 5754 5758 5760 5763 5765 5767 5770 5772 5774 5775 5776 5777 5778 5779
5603 5610 5618 5626 5630 5635 5642 5649 5652 5652 5654 5657 5661 5669 5679 5688 5693 5697 5700 5703 5707 5710 5714 5717 5720 5723 5727 5730 5733 5737 5740 5743 5746 5748 5751 5753 5756 5758 5760 5761 5763 5764 5765 5765
5593 5599 5606 5610 5614 5624 5631 5635 5638 5641 5643 5647 5650 5660 5671 5676 5680 5683 5686 5689 5693 5697 5699 5702 5705 5708 5711 5715 5718 5721 5724 5727 5730 5733 5735 5738 5741 5743 5745 5746 5748 5749 5750 5751
5583 5587 5592 5599 5607 5613 5617 5622 5627 5630 5633 5636 5640 5650 5660 5664 5667 5669 5672 5675 5679 5683 5686 5689 5691 5694 5696 5699 5703 5706 5709 5712 5715 5717 5720 5722 5725 5727 5729 5731 5733 5734 5735 5736
5573 5575 5580 5586 5593 5598 5602 5608 5614 5618 5621 5624 5628 5639 5650 5652 5654 5656 5659 5662 5665 5668 5671 5674 5677 5680 5682 5685 5688 5691 5693 5696 5699 5702 5704 5707 5709 5711 5713 5715 5717 5718 5719 5721
5562 5564 5570 5575 5582 5589 5592 5598 5603 5605 5606 5611 5617 5627 5636 5639 5641 5644 5645 5648 5651 5655 5658 5661 5664 5666 5668 5670 5673 5675 5678 5681 5683 5686 5689 5691 5693 5695 5697 5699 5700 5702 5703 5704
5549 5553 5559 5566 5572 5576 5580 5585 5589 5591 5596 5600 5608 5614 5622 5626 5628 5630 5632 5635 5637 5641 5644 5647 5650 5652 5654 5656 5658 5660 5663 5665 5668 5670 5673 5676 5677 5679 5680 5682 5683 5685 5686 5688
5538 5543 5548 5553 5560 5563 5565 5571 5575 5580 5584 5588 5594 5600 5611 5613 5614 5617 5619 5621 5623 5626 5629 5632 5635 5637 5639 5642 5644 5646 5648 5650 5652 5655 5657 5659 5661 5663 5664 5666 5667 5668 5670 5671
5528 5533 5538 5542 5548 5549 5550 5560 5565 5569 5573 5578 5581 5591 5597 5599 5601 5603 5605 5607 5609 5611 5614 5617 5620 5622 5624 5626 5628 5630 5633 5634 5636 5639 5641 5643 5644 5645 5647 5648 5650 5652 5653 5654
5519 5523 5527 5531 5535 5533 5544 5552 5555 5558 5562 5567 5570 5576 5582 5585 5587 5588 5590 5592 5594 5596 5599 5601 5604 5606 5608 5610 5612 5614 5616 5618 5620 5622 5624 5625 5627 5628 5630 5631 5633 5634 5635 5636
5510 5514 5517 5519 5521 5523 5532 5541 5545 5547 5549 5556 5559 5563 5568 5570 5571 5573 5576 5577 5579 5581 5583 5586 5588 5590 5592 5594 5595 5597 5599 5600 5602 5604 5606 5607 5608 5610 5612 5613 5615 5616 5617 5618
5500 5504 5507 5509 5510 5513 5525 5532 5535 5534 5535 5546 5548 5551 5554 5555 5555 5560 5562 5562 5564 5566 5567 5569 5571 5573 5575 5576 5577 5579 5581 5582 5584 5586 5588 5589 5589 5591 5593 5595 5596 5597 5598 5600
5490 5493 5496 5498 5499 5504 5515 5520 5521 5521 5528 5535 5535 5536 5538 5539 5541 5545 5546 5547 5548 5550 5551 5553 5554 5556 5557 5558 5559 5561 5563 5564 5566 5567 5569 5570 5571 5572 5574 5576 5577 5578 5579 5580
5480 5483 5486 5488 5489 5498 5505 5507 5509 5511 5515 5518 5520 5521 5523 5525 5526 5528 5530 5532 5532 5534 5535 5536 5537 5539 5540 5540 5541 5543 5544 5546 5547 5548 5550 5551 5552 5553 5554 5556 5557 5558 5559 5561
5470 5474 5476 5479 5484 5488 5491 5493 5495 5498 5500 5503 5505 5507 5509 5510 5512 5514 5515 5517 5517 5518 5519 5520 5521 5522 5523 5523 5524 5525 5526 5527 5528 5529 5530 5532 5533 5534 5535 5535 5537 5538 5539 5540
5459 5462 5464 5467 5472 5475 5478 5480 5481 5483 5486 5488 5490 5492 5494 5495 5497 5499 5500 5501 5502 5502 5502 5503 5504 5505 5506 5506 5506 5506 5507 5508 5509 5510 5511 5512 5512 5513 5514 5515 5516 5517 5519 5520
5449 5451 5452 5455 5460 5462 5464 5466 5468 5469 5471 5473 5475 5477 5478 5480 5481 5483 5484 5485 5486 5486 5486 5487 5487 5487 5488 5488 5488 5487 5487 5488 5489 5490 5491 5491 5492 5492 5493 5494 5495 5497 5498 5499
5438 5439 5441 5443 5447 5447 5450 5452 5453 5454 5456 5458 5460 5462 5463 5465 5466 5467 5468 5469 5470 5470 5470 5470 5470 5470 5470 5470 5470 5469 5468 5469 5469 5470 5471 5471 5471 5472 5472 5473 5475 5476 5477 5479